Weather History for K08D - June, 2013

Change the Weather History Date:

Thursday, June 6, 2013

  Actual Average (KMOT) Record (KMOT)
Temperature  
Mean Temperature 54 °F 61 °F  
Max Temperature 68 °F 73 °F 99 °F (1988)
Min Temperature 39 °F 50 °F 30 °F (1910)
Degree Days  
Heating Degree Days 12    
Cooling Degree Days 0 2  
Month to date cooling degree days 8  
Year to date cooling degree days 24  
Since 1 June cooling degree days 8  
Growing Degree Days 4 (Base 50)    
Moisture  
Dew Point 46 °F    
Average Humidity 74    
Maximum Humidity 100    
Minimum Humidity 37    
Precipitation  
Precipitation 0.00 in 0.12 in 1.66 in (1951)
Month to date precipitation 0.71  
Year to date precipitation 6.10  
Sea Level Pressure  
Sea Level Pressure 30.06 in    
Wind  
Wind Speed 5 mph (SSW)    
Max Wind Speed 18 mph    
Max Gust Speed 25 mph    
Visibility 9 miles    
Events Fog    
T = Trace of Precipitation, MM = Missing Value Source: NWS Daily Summary

Daily Weather History Graph

Daily Weather History Graph

Search for Another Location

Airport or City:

Trip Planner

Search our weather history database for the weather conditions in past years. The results will help you decide how hot, cold, wet, or windy it might be!

Date:

Astronomy

Jun. 06, 2013 Rise Set
Actual Time 5:50 AM CDT 9:46 PM CDT
Civil Twilight 5:09 AM CDT 10:27 PM CDT
Nautical Twilight 4:12 AM CDT 11:24 PM CDT
Astronomical Twilight 2:42 AM CDT 12:56 AM CDT
Moon 4:41 AM CDT (6/6) 8:03 PM CDT (6/6)
Length of Visible Light 17h 18m
Length of Day
15h 56m
Waning Crescent, 3% of the Moon is Illuminated
Jun 6
Waning Crescent
Jun 8
New
Jun 16
First Quarter
Jun 23
Full
Jun 29
Last Quarter

Hourly Weather History & Observations

Time (CDT) Temp. Windchill Dew Point Humidity Pressure Visibility Wind Dir Wind Speed Gust Speed Precip Events Conditions
12:15 AM 46.4 °F 45.2 °F 46.4 °F 100% 30.12 in 10.0 mi WSW 3.5 mph - N/A   Clear
12:35 AM 44.6 °F - 44.6 °F 100% 30.11 in 10.0 mi Calm Calm - N/A   Clear
12:55 AM 44.6 °F - 44.6 °F 100% 30.12 in 10.0 mi Calm Calm - N/A   Clear
1:15 AM 46.4 °F 45.2 °F 46.4 °F 100% 30.11 in 10.0 mi West 3.5 mph - N/A   Clear
1:35 AM 46.4 °F - 46.4 °F 100% 30.11 in 10.0 mi Calm Calm - N/A   Clear
1:55 AM 44.6 °F 43.1 °F 44.6 °F 100% 30.11 in 10.0 mi WSW 3.5 mph - N/A   Clear
2:15 AM 44.6 °F - 44.6 °F 100% 30.11 in 10.0 mi Calm Calm - N/A   Clear
2:35 AM 44.6 °F - 44.6 °F 100% 30.10 in 10.0 mi Calm Calm - N/A   Clear
2:55 AM 44.6 °F - 44.6 °F 100% 30.10 in 1.0 mi Calm Calm - N/A   Clear
3:15 AM 42.8 °F - 42.8 °F 100% 30.10 in 0.8 mi Calm Calm - N/A   Mist
3:35 AM 42.8 °F - 42.8 °F 100% 30.10 in 2.0 mi Calm Calm - N/A   Clear
3:55 AM 41.0 °F - 41.0 °F 100% 30.10 in 0.5 mi Calm Calm - N/A Fog Fog
4:15 AM 41.0 °F - 41.0 °F 100% 30.10 in 0.5 mi Calm Calm - N/A Fog Fog
4:35 AM 42.8 °F - 42.8 °F 100% 30.10 in 10.0 mi Calm Calm - N/A   Clear
4:55 AM 42.8 °F - 42.8 °F 100% 30.10 in 10.0 mi Calm Calm - N/A   Clear
5:15 AM 41.0 °F - 41.0 °F 100% 30.09 in 5.0 mi Calm Calm - N/A   Clear
5:35 AM 41.0 °F - 41.0 °F 100% 30.09 in 1.2 mi Calm Calm - N/A   Clear
5:55 AM 39.2 °F 37.0 °F 39.2 °F 100% 30.09 in 0.2 mi East 3.5 mph - N/A Fog Fog
6:15 AM 39.2 °F - 39.2 °F 100% 30.09 in 1.0 mi Calm Calm - N/A   Clear
6:35 AM 41.0 °F - 41.0 °F 100% 30.09 in 5.0 mi Calm Calm - N/A   Clear
6:55 AM 41.0 °F - 41.0 °F 100% 30.10 in 10.0 mi Calm Calm - N/A   Clear
7:15 AM 42.8 °F - 42.8 °F 100% 30.10 in 10.0 mi Calm Calm - N/A   Clear
7:35 AM 46.4 °F - 46.4 °F 100% 30.10 in 10.0 mi Calm Calm - N/A   Clear
7:55 AM 48.2 °F - 48.2 °F 100% 30.10 in 10.0 mi Calm Calm - N/A   Clear
8:15 AM 50.0 °F - 50.0 °F 100% 30.10 in 10.0 mi South 3.5 mph - N/A   Clear
8:35 AM 51.8 °F - 51.8 °F 100% 30.10 in 10.0 mi South 3.5 mph - N/A   Clear
8:55 AM 55.4 °F - 55.4 °F 100% 30.10 in 10.0 mi South 4.6 mph - N/A   Clear
9:15 AM 57.2 °F - 55.4 °F 94% 30.10 in 10.0 mi South 5.8 mph - N/A   Clear
9:35 AM 59.0 °F - 55.4 °F 88% 30.10 in 10.0 mi SSW 5.8 mph - N/A   Clear
9:55 AM 59.0 °F - 53.6 °F 82% 30.10 in 10.0 mi SSW 10.4 mph - N/A   Clear
10:15 AM 60.8 °F - 53.6 °F 77% 30.10 in 10.0 mi South 11.5 mph - N/A   Clear
10:35 AM 62.6 °F - 50.0 °F 63% 30.10 in 10.0 mi SSW 10.4 mph - N/A   Clear
10:55 AM 62.6 °F - 48.2 °F 59% 30.09 in 10.0 mi South 11.5 mph - N/A   Clear
11:15 AM 64.4 °F - 46.4 °F 52% 30.09 in 10.0 mi South 10.4 mph - N/A   Clear
11:35 AM 64.4 °F - 44.6 °F 49% 30.09 in 10.0 mi South 10.4 mph 18.4 mph N/A   Clear
11:55 AM 64.4 °F - 42.8 °F 45% 30.08 in 10.0 mi SSW 16.1 mph 21.9 mph N/A   Clear
12:15 PM 64.4 °F - 42.8 °F 45% 30.08 in 10.0 mi South 16.1 mph 19.6 mph N/A   Clear
12:35 PM 64.4 °F - 41.0 °F 42% 30.08 in 10.0 mi South 15.0 mph 21.9 mph N/A   Clear
12:55 PM 66.2 °F - 41.0 °F 40% 30.08 in 10.0 mi South 17.3 mph 23.0 mph N/A   Clear
1:15 PM 66.2 °F - 41.0 °F 40% 30.08 in 10.0 mi South 17.3 mph 21.9 mph N/A   Clear
1:35 PM 66.2 °F - 39.2 °F 37% 30.07 in 10.0 mi South 17.3 mph 23.0 mph N/A   Clear
1:55 PM 66.2 °F - 41.0 °F 40% 30.06 in 10.0 mi South 18.4 mph 25.3 mph N/A   Clear
2:15 PM 66.2 °F - 41.0 °F 40% 30.07 in 10.0 mi SSW 17.3 mph 25.3 mph N/A   Clear
2:35 PM 68.0 °F - 42.8 °F 40% 30.06 in 10.0 mi South 15.0 mph 24.2 mph N/A   Clear
2:55 PM 66.2 °F - 42.8 °F 43% 30.05 in 10.0 mi South 12.7 mph 23.0 mph N/A   Partly Cloudy
3:15 PM 66.2 °F - 44.6 °F 46% 30.05 in 10.0 mi South 16.1 mph 20.7 mph N/A   Scattered Clouds
3:35 PM 66.2 °F - 44.6 °F 46% 30.05 in 10.0 mi South 15.0 mph 18.4 mph N/A   Mostly Cloudy
3:55 PM 64.4 °F - 44.6 °F 49% 30.05 in 10.0 mi SSW 13.8 mph - N/A   Overcast
4:15 PM 64.4 °F - 44.6 °F 49% 30.05 in 10.0 mi South 10.4 mph - N/A   Overcast
4:35 PM 66.2 °F - 44.6 °F 46% 30.04 in 10.0 mi South 13.8 mph 20.7 mph N/A   Scattered Clouds
4:55 PM 66.2 °F - 44.6 °F 46% 30.04 in 10.0 mi SSW 9.2 mph 23.0 mph N/A   Scattered Clouds
5:15 PM 66.2 °F - 44.6 °F 46% 30.03 in 10.0 mi SSW 10.4 mph 19.6 mph N/A   Partly Cloudy
5:35 PM 66.2 °F - 44.6 °F 46% 30.03 in 10.0 mi SSW 10.4 mph 16.1 mph N/A   Mostly Cloudy
5:55 PM 68.0 °F - 46.4 °F 46% 30.02 in 10.0 mi SSW 12.7 mph - N/A   Mostly Cloudy
6:15 PM 66.2 °F - 46.4 °F 49% 30.02 in 10.0 mi South 13.8 mph 18.4 mph N/A   Mostly Cloudy
6:35 PM 66.2 °F - 46.4 °F 49% 30.02 in 10.0 mi South 9.2 mph - N/A   Overcast
6:55 PM 66.2 °F - 48.2 °F 52% 30.01 in 10.0 mi SSW 9.2 mph - N/A   Mostly Cloudy
7:15 PM 66.2 °F - 48.2 °F 52% 30.01 in 10.0 mi SSW 12.7 mph - N/A   Partly Cloudy
7:35 PM 66.2 °F - 46.4 °F 49% 30.00 in 10.0 mi South 11.5 mph - N/A   Clear
7:55 PM 66.2 °F - 48.2 °F 52% 29.99 in 10.0 mi South 13.8 mph 17.3 mph N/A   Scattered Clouds
8:15 PM 64.4 °F - 48.2 °F 56% 29.99 in 10.0 mi South 12.7 mph - N/A   Partly Cloudy
8:35 PM 64.4 °F - 48.2 °F 56% 29.99 in 10.0 mi South 9.2 mph - N/A   Clear
8:55 PM 64.4 °F - 48.2 °F 56% 29.99 in 10.0 mi South 10.4 mph - N/A   Clear
9:15 PM 62.6 °F - 50.0 °F 63% 29.99 in 10.0 mi South 10.4 mph - N/A   Clear
9:35 PM 59.0 °F - 50.0 °F 72% 29.99 in 10.0 mi SSW 6.9 mph - N/A   Clear
9:55 PM 57.2 °F - 53.6 °F 88% 29.99 in 10.0 mi SW 6.9 mph - N/A   Clear
10:15 PM 57.2 °F - 51.8 °F 82% 29.99 in 10.0 mi SSW 8.1 mph - N/A   Mostly Cloudy
10:35 PM 57.2 °F - 53.6 °F 88% 29.99 in 10.0 mi SSW 6.9 mph - N/A   Mostly Cloudy
10:55 PM 55.4 °F - 53.6 °F 94% 29.99 in 10.0 mi SW 5.8 mph - N/A   Mostly Cloudy
11:15 PM 53.6 °F - 53.6 °F 100% 29.99 in 10.0 mi SSW 6.9 mph - N/A   Mostly Cloudy
11:35 PM 51.8 °F - 51.8 °F 100% 30.00 in 10.0 mi Calm Calm - N/A   Scattered Clouds
11:55 PM 51.8 °F - 51.8 °F 100% 30.00 in 10.0 mi WSW 4.6 mph - N/A   Scattered Clouds